Telfer, Australia

9:26 AM AWST on March 25, 2017 (GMT +0800)
Telfer

Weather History for YTEF - November, 2012

Change the Weather History Date:

Thursday, November 8, 2012

  Actual Average Record
Temperature  
Mean Temperature 84 °F -  
Max Temperature 97 °F - - ()
Min Temperature 71 °F - - ()
Cooling Degree Days 19    
Growing Degree Days 34 (Base 50)    
Moisture  
Dew Point 29 °F    
Average Humidity 12    
Maximum Humidity 23    
Minimum Humidity 4    
Precipitation  
Precipitation 0.00 in - - ()
Sea Level Pressure  
Sea Level Pressure 29.84 in    
Wind  
Wind Speed 14 mph ()    
Max Wind Speed 26 mph    
Max Gust Speed 36 mph    
T = Trace of Precipitation, MM = Missing Value Source: Averaged Metar Reports

Daily Weather History Graph

Daily Weather History Graph

Search for Another Location

Airport or City:

Trip Planner

Search our weather history database for the weather conditions in past years. The results will help you decide how hot, cold, wet, or windy it might be!

Date:

Astronomy

Nov. 08, 2012 Rise Set
Actual Time 5:03 AM AWST 6:06 PM AWST
Civil Twilight 4:40 AM AWST 6:29 PM AWST
Nautical Twilight 4:12 AM AWST 6:57 PM AWST
Astronomical Twilight 3:43 AM AWST 7:26 PM AWST
Moon 12:32 AM AWST (11/8) 12:29 PM AWST (11/8)
Length of Visible Light 13h 49m
Length of Day
13h 02m
Last Quarter, 38% of the Moon is Illuminated
Nov 8
Last Quarter
Nov 14
New
Nov 20
First Quarter
Nov 28
Full
Dec 6
Last Quarter

Hourly Weather History & Observations

Time (AWST) Temp. Dew Point Humidity Pressure Visibility Wind Dir Wind Speed Gust Speed Precip Events Conditions
12:00 AM 76 °F 31 °F 10% 29.76 in - SE 9.2 mph - -  
12:00 AM 77.0 °F 30.2 °F 18% 29.80 in - SE 9.2 mph - N/A   Unknown
1:00 AM 77.0 °F 30.2 °F 18% 29.80 in - SSE 11.5 mph - N/A   Unknown
2:00 AM 77 °F 31 °F 10% 29.74 in - SSE 13.8 mph - -  
2:00 AM 77.0 °F 32.0 °F 19% 29.80 in - SSE 13.8 mph - N/A   Unknown
3:00 AM 75 °F 31 °F 11% 29.75 in - SSE 15.0 mph - -  
3:00 AM 75.2 °F 30.2 °F 19% 29.80 in - SSE 15.0 mph - N/A   Unknown
4:00 AM 73.4 °F 30.2 °F 20% 29.83 in - SE 13.8 mph - N/A   Unknown
5:00 AM 72 °F 32 °F 13% 29.81 in - SE 13.8 mph - -  
5:00 AM 71.6 °F 32.0 °F 23% 29.86 in - SE 13.8 mph - N/A   Unknown
6:00 AM 74 °F 33 °F 13% 29.84 in - SE 15.0 mph - -  
6:00 AM 73.4 °F 33.8 °F 23% 29.89 in - SE 15.0 mph - N/A   Unknown
7:34 AM 80.6 °F 33.8 °F 18% 29.92 in - ESE 24.2 mph 35.7 mph N/A   Unknown
8:00 AM 81 °F 32 °F 9% 29.86 in - SE 26.5 mph - -  
8:00 AM 80.6 °F 32.0 °F 17% 29.92 in - SE 26.5 mph - N/A   Unknown
9:00 AM 87 °F 32 °F 7% 29.87 in - ESE 23.0 mph - -  
9:00 AM 86.0 °F 32.0 °F 14% 29.92 in - ESE 23.0 mph - N/A   Unknown
9:09 AM 86.0 °F 32.0 °F 14% 29.92 in - ESE 21.9 mph 33.4 mph N/A   Unknown
9:56 AM 87.8 °F 30.2 °F 13% 29.92 in - SSE 23.0 mph - N/A   Unknown
10:00 AM 87.8 °F 32.0 °F 14% 29.92 in - SE 23.0 mph - N/A   Unknown
11:00 AM 92 °F 30 °F 5% 29.84 in - SE 20.7 mph - -  
11:00 AM 93.2 °F 30.2 °F 11% 29.89 in - SE 20.7 mph - N/A   Unknown
12:00 PM 93 °F 31 °F 5% 29.81 in - SE 17.3 mph - -  
12:00 PM 93.2 °F 30.2 °F 11% 29.86 in - SE 17.3 mph - N/A   Unknown
1:00 PM 95.0 °F 30.2 °F 10% 29.83 in - SSE 15.0 mph - N/A   Unknown
2:00 PM 96 °F 31 °F 5% 29.76 in - SE 13.8 mph - -  
2:00 PM 96.8 °F 30.2 °F 10% 29.80 in - SE 13.8 mph 25.3 mph N/A   Unknown
3:00 PM 96 °F 28 °F 4% 29.75 in - SSE 15.0 mph - -  
3:00 PM 96.8 °F 28.4 °F 9% 29.80 in - SSE 15.0 mph - N/A   Unknown
4:00 PM 95.0 °F 26.6 °F 9% 29.80 in - SE 16.1 mph - N/A   Unknown
5:00 PM 94 °F 29 °F 4% 29.76 in - South 12.7 mph - -  
5:00 PM 93.2 °F 28.4 °F 10% 29.80 in - South 12.7 mph - N/A   Unknown
6:00 PM 91 °F 27 °F 4% 29.78 in - SSE 12.7 mph - -  
6:00 PM 91.4 °F 26.6 °F 10% 29.83 in - SSE 12.7 mph - N/A   Unknown
7:00 PM 87.8 °F 26.6 °F 11% 29.86 in - SSE 10.4 mph - N/A   Unknown
8:00 PM 84 °F 28 °F 6% 29.84 in - SE 8.1 mph - -  
8:00 PM 84.2 °F 28.4 °F 13% 29.89 in - SE 8.1 mph - N/A   Unknown
9:00 PM 82 °F 23 °F 5% 29.86 in - SSE 11.5 mph - -  
9:00 PM 82.4 °F 23.0 °F 11% 29.92 in - SSE 11.5 mph - N/A   Unknown
10:00 PM 78.8 °F 21.2 °F 12% 29.92 in - SE 12.7 mph - N/A   Unknown
11:00 PM 78 °F 21 °F 5% 29.87 in - SSE 15.0 mph - -  
11:00 PM 78.8 °F 21.2 °F 12% 29.92 in - SSE 15.0 mph - N/A   Unknown